Location: Mascot Post Office (historical)
(40.2645°N, 99.5462°W)
Time: 02:47:34
(UTC+00:00)

Cosmos 1674 Rocket - Pass Details

Date: 14 July 2020
Orbit: 602 x 631 km, 82.5° (Epoch: 14 August)

Event Time Altitude Azimuth Distance (km) Brightness Sun altitude
Rises 09:11:15 0° 354° (N) 2,880 7.7 -19.3°
Reaches altitude 10° 09:13:30 10° 356° (N) 1,967 6.8 -19.1°
Maximum altitude 09:17:50 72° 82° (E) 638 3.7 -18.6°
Enters shadow 09:20:32 22° 163° (SSE) 1,322 4.9 -18.2°
